Location: Newport
(44.6370°N, 124.0520°W)
Time: 17:36:25
(UTC-08:00)

Vanguard 1 Rocket - All Passes

Search period start: 20 February 2018 00:00
Search period end: 02 March 2018 00:00
Orbit: 655 x 4222 km, 34.3° (Epoch: 19 February)

Date Brightness Start Highest point End Pass type
(mag) Time Alt. Az. Time Alt. Az. Time Alt. Az.
20 Feb - 02:18:20 10° W 02:43:32 63° S 03:04:13 10° ESE visible
20 Feb - 04:50:43 10° W 05:13:16 42° SW 05:28:44 10° SSE visible
20 Feb - 07:30:23 10° W 07:38:21 13° WSW 07:44:59 10° SW daylight
20 Feb - 20:16:52 10° S 20:29:46 25° SE 20:46:53 10° E visible
20 Feb - 22:37:58 10° SW 22:57:13 52° SSE 23:21:38 10° E visible
21 Feb - 01:04:46 10° WSW 01:28:41 65° S 01:51:48 10° ESE visible
21 Feb - 03:35:25 10° W 04:00:02 53° SSW 04:18:19 10° SE visible
21 Feb - 06:10:21 10° W 06:27:14 25° SW 06:39:28 10° S visible
21 Feb - 19:11:37 10° SE 19:18:28 13° ESE 19:26:33 10° E visible
21 Feb - 21:27:26 10° SSW 21:43:50 42° SE 22:06:33 10° E visible
21 Feb - 23:52:07 10° WSW 00:13:47 63° S 00:38:30 10° E visible
22 Feb - 02:21:01 10° W 02:45:51 61° SSW 03:06:53 10° ESE visible
22 Feb - 04:53:32 10° W 05:15:11 37° SW 05:30:47 10° SSE visible
22 Feb - 20:18:11 10° S 20:31:29 30° SE 20:50:17 10° E visible
22 Feb - 22:40:24 10° SW 22:59:23 56° SSE 23:24:20 10° E visible
23 Feb - 01:07:29 10° WSW 01:31:03 65° S 01:54:30 10° ESE visible
23 Feb - 03:38:08 10° W 04:02:07 49° SSW 04:20:39 10° SE visible
23 Feb - 06:14:11 10° W 06:28:53 20° SW 06:40:20 10° SSW visible
23 Feb - 19:11:00 10° SSE 19:20:05 18° ESE 19:31:57 10° E visible
23 Feb - 21:29:39 10° SW 21:45:49 47° SSE 22:09:18 10° E visible
23 Feb - 23:54:49 10° WSW 00:16:08 64° S 00:41:11 10° E visible
24 Feb - 02:23:46 10° W 02:48:05 58° SSW 03:09:24 10° SE visible
24 Feb - 04:56:35 10° W 05:16:59 32° SW 05:32:29 10° S visible
24 Feb - 20:19:58 10° SSW 20:33:19 35° SE 20:53:19 10° E visible
24 Feb - 22:43:02 10° WSW 23:01:38 60° SSE 23:26:58 10° E visible
25 Feb - 01:10:17 10° W 01:33:24 63° S 01:57:06 10° ESE visible
25 Feb - 03:40:58 10° W 04:04:05 44° SW 04:22:45 10° SSE visible
25 Feb - 06:19:00 10° W 06:30:28 16° WSW 06:40:06 10° SSW visible
25 Feb - 19:11:47 10° S 19:21:50 22° SE 19:35:59 10° E visible
25 Feb - 21:32:06 10° SW 21:47:57 51° SSE 22:11:56 10° E visible
25 Feb - 23:57:37 10° WSW 00:18:32 65° S 00:43:48 10° ESE visible
26 Feb - 02:26:34 10° W 02:50:15 53° SSW 03:11:43 10° SE visible
26 Feb - 04:59:57 10° W 05:18:40 27° SW 05:33:43 10° S visible
26 Feb - 18:09:01 10° SE 18:11:08 10° ESE 18:13:24 10° ESE daylight
26 Feb - 20:22:06 10° SSW 20:35:18 40° SE 20:56:08 10° E visible
26 Feb - 22:45:47 10° WSW 23:04:00 62° SSE 23:29:33 10° E visible
27 Feb - 01:13:07 10° W 01:35:43 61° SSW 01:59:33 10° ESE visible
27 Feb - 03:43:56 10° W 04:05:57 38° SW 04:24:32 10° SSE visible
27 Feb - 06:26:32 10° WSW 06:32:00 11° WSW 06:37:04 10° SW visible
27 Feb - 19:13:17 10° S 19:23:40 27° SE 19:39:24 10° E visible
27 Feb - 21:34:44 10° SW 21:50:13 55° SSE 22:14:30 10° E visible
28 Feb - 00:00:30 10° W 00:20:57 64° S 00:46:19 10° ESE visible
28 Feb - 02:29:27 10° W 02:52:18 49° SSW 03:13:49 10° SE visible
28 Feb - 05:03:51 10° W 05:20:17 22° SW 05:34:17 10° S visible
28 Feb - 18:06:52 10° SSE 18:12:55 14° ESE 18:20:37 10° E daylight
28 Feb - 20:24:30 10° SSW 20:37:26 44° SSE 20:58:47 10° E visible
28 Feb - 22:48:39 10° WSW 23:06:27 63° S 23:32:05 10° E visible
01 Mar - 01:16:01 10° W 01:37:58 57° SSW 02:01:51 10° SE visible
01 Mar - 03:47:09 10° W 04:07:43 33° SW 04:25:56 10° SSE visible
01 Mar - 19:15:14 10° SSW 19:25:41 31° SE 19:42:26 10° E visible
01 Mar - 21:37:31 10° WSW 21:52:36 58° SSE 22:17:01 10° E visible
